Theta_e
326 328 335 338 341 342 343 344 343 343 340 338 336 335 335 335 337 336 337 336 337 336 335 331 330 332 331 330 330 326 325 323 322 319 318 318 318 319 319 319 320 320 319
325 324 327 330 333 335 342 343 344 343 340 338 338 337 336 336 337 335 336 337 335 333 330 332 330 329 327 327 326 326 323 324 322 321 318 317 314 313 315 314 316 317 317
324 323 326 329 332 334 333 339 342 343 339 339 338 338 336 337 336 337 336 334 331 329 327 328 327 325 323 322 323 323 323 323 321 321 320 319 318 316 316 314 311 313 313
327 327 329 329 332 335 337 337 339 340 337 339 338 337 337 338 337 335 331 325 325 325 324 323 320 319 319 320 319 320 321 322 321 319 319 319 317 319 316 310 310 308 309
329 330 331 332 334 336 335 337 338 336 335 338 339 339 338 336 332 323 320 319 320 319 319 317 317 318 318 318 319 318 319 319 319 318 318 317 315 313 313 316 306 305 306
329 331 332 333 333 333 333 333 334 334 334 337 339 339 337 329 320 317 316 316 317 318 318 315 315 317 317 317 317 317 316 317 318 317 317 317 312 310 308 310 311 309 310
330 332 333 333 332 332 333 332 334 335 337 336 338 338 331 322 318 316 315 315 316 316 317 318 317 317 317 316 314 314 315 315 316 316 316 316 315 316 315 313 310 306 301
330 333 334 334 334 333 334 334 336 335 336 337 336 326 320 318 315 316 314 315 315 315 316 318 316 316 315 313 313 313 313 313 312 314 314 314 314 314 313 312 309 306 299
329 332 334 335 335 335 335 337 338 338 337 330 322 320 319 317 316 317 317 315 316 316 317 316 315 314 313 313 313 313 313 311 311 310 310 310 310 311 311 312 309 308 301
327 330 333 333 334 335 336 337 338 331 324 320 319 319 319 318 318 317 317 316 316 316 315 314 313 313 312 312 312 312 312 312 309 309 308 308 308 308 309 309 310 309 307
327 328 330 330 330 331 332 331 327 321 318 318 318 319 319 318 317 316 315 316 315 314 313 312 312 312 312 312 312 312 312 311 310 308 307 307 307 307 307 306 307 308 307
325 326 327 327 326 325 325 323 320 318 318 318 316 316 315 314 314 314 314 313 312 311 310 310 310 311 311 311 312 311 311 310 309 308 308 308 306 306 306 305 304 303 304
323 324 326 327 325 322 319 318 317 317 317 314 313 313 313 313 313 312 311 308 306 305 305 305 306 307 308 310 310 310 310 308 306 306 306 304 305 304 303 302 301 301 301
323 323 323 324 324 323 320 317 316 314 312 311 312 312 312 312 310 308 306 304 305 305 304 304 305 306 307 308 308 307 307 305 304 304 303 303 303 300 299 299 298 298 299
324 323 323 323 322 322 322 318 315 312 311 311 311 311 310 307 306 305 304 305 305 304 304 304 304 305 307 306 306 305 304 303 303 303 302 302 301 299 297 296 296 296 298
324 323 321 321 320 320 319 315 312 311 310 310 307 307 306 305 305 305 305 305 304 304 304 304 304 305 306 305 303 303 303 302 303 303 302 301 300 298 296 296 295 295 295
323 322 322 320 317 316 314 313 311 309 308 305 305 305 305 305 305 305 304 303 303 304 304 303 304 303 306 305 303 303 302 301 302 303 301 300 298 297 296 295 296 296 295
322 321 320 318 313 312 311 311 308 306 305 305 305 305 305 305 305 304 303 303 303 304 303 303 304 303 304 303 302 302 301 300 301 301 300 299 298 297 296 295 296 294 292
320 318 315 312 311 310 309 307 305 304 305 305 305 305 305 304 304 303 303 303 302 302 303 301 301 302 302 302 301 301 300 299 299 298 299 298 297 296 295 295 295 292 291
312 312 311 310 310 309 306 305 305 305 305 305 305 304 304 303 303 303 303 303 302 301 300 299 299 299 300 301 300 300 300 299 298 298 298 297 297 295 295 294 295 292 291
309 309 308 309 307 305 305 306 305 304 304 304 304 303 302 302 303 303 303 303 302 301 298 297 298 297 297 297 298 298 298 299 297 296 296 296 296 295 295 294 295 294 292
308 307 307 306 304 304 303 302 302 301 302 301 302 302 302 302 302 303 302 302 300 299 297 296 296 297 296 296 295 296 296 296 296 296 296 296 295 294 294 294 295 294 292
307 305 303 302 302 302 302 303 302 302 302 302 300 300 299 298 298 300 300 300 299 298 298 297 295 294 294 294 294 295 295 295 294 295 295 295 294 294 294 293 293 293 292
303 301 302 303 303 303 303 303 302 301 301 301 301 300 299 299 298 297 297 299 299 297 295 294 294 293 293 293 293 293 294 294 293 293 293 293 293 293 294 293 292 292 291
301 302 302 303 302 302 301 300 299 299 300 300 300 300 299 299 299 298 297 297 296 295 294 294 293 292 292 292 292 291 292 292 292 292 291 291 291 290 291 291 291 291 290
301 302 302 301 300 300 299 299 298 297 297 297 298 298 297 298 297 296 295 295 295 294 294 293 292 292 291 291 291 290 291 291 291 290 289 289 289 290 289 289 289 289 290
Wind_Speed
12 11 13 17 19 21 23 24 25 26 26 27 24 18 15 17 16 15 12 11 10 9 11 11 11 11 12 14 12 11 15 13 10 7 9 11 14 17 21 20 24 23 26
9 12 13 13 16 19 22 24 26 27 28 27 22 16 17 17 14 12 10 11 11 10 10 12 10 9 9 11 14 14 13 13 12 7 4 3 6 20 20 20 29 30 27
8 8 11 14 14 16 20 24 26 28 27 25 23 16 15 11 12 12 13 14 12 10 9 9 9 10 10 13 14 16 18 16 16 18 11 3 5 5 11 17 18 27 32
3 4 7 11 13 13 13 19 23 23 24 26 23 23 21 17 14 16 13 11 9 8 7 8 8 10 12 13 14 14 19 18 20 15 22 19 12 6 4 9 16 17 27
4 4 5 7 7 6 8 11 14 19 22 22 21 22 17 15 14 13 10 8 7 7 7 8 11 13 13 14 16 15 16 17 20 17 11 19 13 12 8 6 6 14 23
5 5 3 3 4 4 4 8 14 19 24 21 21 23 21 17 17 13 10 8 7 7 9 14 15 15 16 16 15 15 17 18 18 19 19 19 7 8 7 5 9 9 10
6 5 4 5 6 9 11 14 19 19 21 22 22 19 16 18 15 11 9 8 7 8 11 13 16 17 17 17 15 15 16 17 18 18 20 20 22 20 16 17 4 4 4
5 6 7 10 9 11 14 16 19 20 22 21 19 19 19 15 12 11 9 8 10 13 14 14 15 16 17 18 16 16 17 17 19 18 18 19 18 16 13 15 8 4 5
5 8 9 11 10 10 14 16 19 19 19 19 20 18 16 13 12 10 8 11 13 13 13 14 15 16 16 16 17 18 19 18 17 20 19 18 17 17 17 14 15 12 4
7 9 11 13 14 15 15 15 17 18 18 17 16 15 13 11 10 9 11 12 12 11 12 13 13 15 16 16 17 19 19 20 18 18 17 16 15 15 15 17 19 19 16
7 8 10 16 17 17 18 19 19 19 19 18 14 12 12 10 10 9 9 8 8 11 13 15 17 17 18 19 19 20 21 22 22 19 17 16 14 15 14 16 20 20 22
6 8 11 15 18 21 21 22 21 20 17 15 14 12 12 12 11 9 6 5 9 11 13 16 18 21 22 21 22 23 21 21 23 21 19 18 14 15 15 17 18 20 20
9 10 10 13 18 23 25 25 24 22 20 17 14 14 13 11 9 6 4 6 8 11 15 18 21 22 24 24 25 25 22 21 20 19 19 19 17 16 15 17 17 17 17
14 13 12 14 19 23 26 25 23 20 17 15 15 14 13 11 8 5 6 6 9 13 18 21 23 24 24 23 23 21 18 18 18 16 19 19 20 17 16 16 19 19 20
18 17 16 15 16 20 23 23 22 19 18 17 17 14 12 10 7 5 4 8 11 16 20 24 25 25 22 21 19 22 20 20 19 16 18 21 24 21 17 16 14 18 19
18 16 15 14 15 19 23 25 24 22 21 20 17 15 13 9 7 1 7 11 15 19 21 24 26 24 21 23 22 19 20 22 20 20 24 23 22 20 17 17 16 15 21
15 15 14 13 13 16 20 23 24 24 23 21 19 16 13 9 3 6 10 14 17 18 19 21 23 24 20 19 21 20 22 23 23 21 22 21 20 17 13 13 14 16 26
14 15 14 11 11 12 17 22 25 23 21 17 14 12 11 7 7 8 11 13 14 14 14 17 17 19 17 16 17 15 18 23 23 22 19 19 18 14 10 10 12 18 21
12 10 11 9 11 17 22 24 22 20 17 14 12 11 9 8 8 8 10 11 11 11 12 12 12 12 17 15 15 14 14 18 23 21 16 15 16 12 9 10 16 16 17
7 8 9 10 15 20 22 21 19 17 15 13 11 10 8 6 7 9 9 8 9 11 9 12 12 13 15 14 17 16 15 15 18 19 17 18 16 12 9 13 19 17 17
5 6 9 12 17 19 18 15 14 13 11 11 10 8 5 5 8 8 9 10 9 9 11 11 11 10 9 12 15 14 15 18 18 18 20 22 18 13 13 13 19 20 19
8 12 15 16 16 14 13 11 10 10 8 7 6 4 5 6 6 8 10 9 9 9 10 10 12 7 11 12 11 11 12 16 18 19 19 22 18 15 14 13 18 16 20
12 15 15 14 11 10 10 11 9 7 6 5 4 4 3 4 6 7 8 7 7 9 8 7 7 9 10 10 9 9 8 10 14 13 14 17 19 16 13 13 13 18 24
12 14 14 12 11 10 9 10 9 6 4 3 3 4 5 7 9 7 8 9 9 6 7 7 7 9 9 9 9 7 5 5 10 8 9 14 21 18 18 14 12 19 23
12 13 12 11 10 9 8 6 5 3 2 3 4 6 7 7 9 11 14 15 14 10 8 6 6 7 9 7 8 6 4 5 8 7 10 16 20 19 19 16 16 16 18
13 12 12 12 10 8 7 5 3 1 2 4 6 6 7 8 8 11 13 14 13 11 8 6 6 6 7 8 6 4 3 5 7 10 12 14 16 15 16 14 13 14 16
Wind_Direction
237 222 217 221 220 218 212 207 200 196 187 182 178 180 185 194 203 215 216 215 210 223 237 248 252 252 256 264 272 264 270 246 241 224 246 245 247 236 237 236 235 225 224
240 224 219 219 221 223 219 211 206 198 189 179 182 183 185 201 202 205 204 201 213 217 225 231 239 253 263 274 271 261 250 249 219 229 212 243 242 238 234 232 236 234 224
253 233 223 228 232 230 219 213 209 201 187 184 179 171 173 174 189 196 195 206 204 214 228 242 262 268 266 267 267 265 254 242 232 223 244 221 239 186 222 231 237 235 232
241 262 245 237 232 233 223 215 209 191 189 180 177 180 186 185 192 195 196 194 205 218 226 239 256 264 264 265 268 264 254 251 259 237 238 248 260 253 230 234 237 235 242
317 292 262 274 263 237 219 209 196 189 185 177 185 184 191 178 181 178 180 196 216 224 235 246 255 256 260 265 266 263 259 254 258 238 238 237 234 235 247 250 230 227 240
287 269 267 275 262 251 206 181 184 181 181 182 187 188 184 177 177 179 192 208 220 230 241 248 255 258 257 262 263 260 260 260 257 258 252 245 212 207 207 233 251 228 232
268 264 248 235 219 207 196 188 182 178 178 181 188 188 183 185 185 188 204 213 223 242 249 247 248 253 257 256 257 257 256 257 251 250 251 254 246 255 249 247 243 230 209
242 244 224 217 215 207 202 189 186 182 184 184 184 181 185 188 191 193 205 223 235 245 249 250 256 259 257 258 255 256 257 252 248 250 248 254 257 257 241 241 217 213 211
221 230 228 222 219 214 208 197 194 191 190 185 182 185 186 186 192 198 209 231 240 249 254 258 262 263 259 255 249 251 253 249 246 247 245 245 249 251 252 248 226 222 198
218 219 217 218 220 216 212 208 201 192 190 191 193 192 191 195 200 212 227 238 251 256 264 270 271 267 259 254 251 253 255 250 246 245 242 241 245 250 250 248 248 234 231
243 229 229 222 219 218 214 207 204 198 195 196 196 195 196 201 213 225 234 243 264 271 279 280 277 272 269 261 251 248 254 253 251 245 242 243 245 251 254 254 255 260 233
230 239 234 223 221 219 214 211 209 207 205 201 197 190 191 195 198 210 225 259 269 284 292 290 286 281 274 267 258 254 249 250 251 245 244 242 245 251 257 257 258 258 255
257 248 232 230 228 225 217 212 211 209 204 199 193 193 191 189 189 192 224 254 295 299 304 301 291 288 280 272 264 257 251 246 242 242 240 244 244 249 255 259 255 254 258
268 258 253 248 240 233 225 219 213 207 195 193 193 186 176 170 179 193 231 301 305 307 297 295 289 284 282 275 264 253 248 240 238 236 240 243 241 245 253 255 256 259 254
272 276 273 263 247 233 227 221 214 198 186 183 178 170 165 167 172 211 340 293 297 294 291 289 287 283 277 267 260 257 249 245 242 240 256 250 251 250 257 253 259 268 250
267 267 260 251 250 237 218 211 199 183 172 173 170 165 167 173 193 71 271 286 290 293 294 291 288 286 277 274 274 263 248 246 237 244 251 255 253 247 261 259 258 263 191
267 264 260 253 242 231 211 200 187 167 170 172 172 172 177 184 187 249 273 288 293 297 298 299 296 288 281 282 283 272 253 241 244 251 248 249 244 248 258 259 244 241 221
270 263 267 247 227 211 192 182 171 165 170 175 177 179 181 180 221 251 273 288 292 292 297 300 297 291 282 290 293 281 256 247 249 247 245 243 235 244 251 258 231 218 205
279 277 274 234 189 181 177 168 164 164 171 177 183 190 192 206 236 267 283 284 287 287 298 300 306 298 297 292 291 285 263 253 251 248 235 228 231 233 238 238 208 199 197
241 238 220 188 180 173 168 162 164 166 177 184 188 190 190 210 249 263 269 276 283 291 291 302 302 295 291 288 279 275 266 254 250 248 239 229 228 223 222 215 205 181 185
198 180 173 174 166 161 162 160 161 172 167 169 170 178 202 236 245 243 260 278 283 286 297 303 304 298 294 298 291 279 260 255 246 235 230 222 217 215 216 216 208 201 188
156 161 154 151 151 153 158 150 151 147 141 152 171 197 227 225 227 249 264 276 275 279 288 297 305 301 299 298 299 293 276 253 245 239 238 224 210 207 207 208 207 202 181
159 162 151 142 141 149 160 148 143 146 145 147 165 189 215 264 257 250 255 258 254 265 274 283 297 302 303 297 298 303 301 249 239 249 245 223 201 198 192 194 193 192 178
167 163 157 149 143 141 137 146 152 156 169 200 245 268 270 269 263 255 250 244 249 242 261 277 288 290 293 296 306 316 312 248 221 225 225 209 194 193 193 188 181 185 187
166 163 159 152 146 141 136 136 144 163 220 268 285 292 281 261 266 263 264 244 242 241 248 269 271 283 295 300 306 301 304 253 223 206 188 180 177 178 182 177 174 177 188
154 151 148 148 148 148 149 147 137 149 283 290 288 278 279 282 277 279 270 233 236 238 250 263 271 279 292 297 302 283 258 212 205 179 168 165 171 171 168 164 171 184 180